User: anonymous   Login
Location: Thompson
(55.7500°N, 97.8670°W)
Time: 01:42:47
(UTC-05:00)
Language:

Cosmos 1833 Rocket - Orbit

View from above orbital plane
View from above orbital plane
View from above satellite
View from above satellite

Ground track
Ground track

The orbit data is extracted from the following two-line orbital elements,

1 17590U 87027B   16181.52521174  .00000163  00000-0  10520-3 0  9991
2 17590  71.0013 172.5798 0003402 141.4635 218.6732 14.16725954514179
Epoch (UTC): 29 June 2016 12:36:18
Eccentricity: 0.0003402
inclination: 71.0013°
perigee height: 834 km
apogee height: 839 km
right ascension of ascending node: 172.5798°
argument of perigee: 141.4635°
revolutions per day: 14.16725954
mean anomaly at epoch: 218.6732°
orbit number at epoch: 51417

The dashed part of the orbit path shows where the satellite is in the earth's shadow,  

DLR